Location: Unspecified
(55.1028°N, 0.0000°E)
Time: 14:42:03
(UTC+00:00)

Tiros 1 despin weight - All Passes

Search period start: 04 April 2026 00:00
Search period end: 14 April 2026 00:00
Orbit: 555 x 593 km, 48.2° (Epoch: 29 March)

Date Brightness Start Highest point End Pass type
(mag) Time Alt. Az. Time Alt. Az. Time Alt. Az.
4 Apr - 00:25:01 10° WSW 00:29:00 33° S 00:32:58 10° ESE night (unlit)
4 Apr - 02:05:26 10° WSW 02:08:51 22° SSW 02:12:16 10° SSE night (unlit)
4 Apr - 21:08:43 10° S 21:11:17 15° SSE 21:13:52 10° ESE visible
4 Apr - 22:47:08 10° SW 22:50:58 30° SSE 22:54:50 10° ESE night (unlit)
5 Apr - 00:26:59 10° WSW 00:30:54 32° S 00:34:51 10° SE night (unlit)
5 Apr - 02:07:39 10° WSW 02:10:41 18° SSW 02:13:43 10° SSE night (unlit)
5 Apr - 21:09:58 10° SSW 21:13:04 19° SSE 21:16:12 10° ESE visible
5 Apr - 22:48:56 10° WSW 22:52:52 32° S 22:56:48 10° ESE night (unlit)
6 Apr - 00:28:59 10° WSW 00:32:48 29° SSW 00:36:38 10° SE night (unlit)
6 Apr - 02:10:03 10° WSW 02:12:28 15° SSW 02:14:53 10° S night (unlit)
6 Apr - 21:11:27 10° SSW 21:14:54 23° SSE 21:18:23 10° ESE visible
6 Apr - 22:50:48 10° WSW 22:54:46 33° S 22:58:44 10° ESE visible
7 Apr - 00:31:01 10° WSW 00:34:40 26° SSW 00:38:20 10° SE night (unlit)
7 Apr - 02:13:02 10° SW 02:14:12 11° SW 02:15:23 10° SSW night (unlit)
7 Apr - 19:35:37 10° SSE 19:37:11 12° SE 19:38:45 10° ESE visible
7 Apr - 21:13:04 10° SW 21:16:44 27° SSE 21:20:26 10° ESE visible
7 Apr - 22:52:42 10° WSW 22:56:39 33° S 23:00:38 10° ESE visible
8 Apr - 00:33:06 10° WSW 00:36:30 22° SSW 00:39:55 10° SSE night (unlit)
8 Apr - 19:36:23 10° S 19:38:54 15° SSE 19:41:28 10° ESE visible
8 Apr - 21:14:47 10° SW 21:18:35 30° SSE 21:22:26 10° ESE visible
8 Apr - 22:54:38 10° WSW 22:58:32 32° S 23:02:27 10° SE visible
9 Apr - 00:35:17 10° WSW 00:38:18 18° SSW 00:41:19 10° SSE night (unlit)
9 Apr - 19:37:36 10° SSW 19:40:41 19° SSE 19:43:47 10° ESE visible
9 Apr - 21:16:34 10° WSW 21:20:27 32° S 21:24:23 10° ESE visible
9 Apr - 22:56:36 10° WSW 23:00:23 29° SSW 23:04:12 10° SE visible
10 Apr - 00:37:40 10° WSW 00:40:02 14° SSW 00:42:26 10° S night (unlit)
10 Apr - 19:39:02 10° SSW 19:42:27 23° SSE 19:45:54 10° ESE visible
10 Apr - 21:18:23 10° WSW 21:22:19 33° S 21:26:17 10° ESE visible
10 Apr - 22:58:35 10° WSW 23:02:13 26° SSW 23:05:52 10° SE visible
11 Apr - 00:40:38 10° SW 00:41:45 11° SW 00:42:52 10° SSW night (unlit)
11 Apr - 18:03:13 10° SSE 18:04:43 12° SE 18:06:14 10° ESE daylight
11 Apr - 19:40:37 10° SW 19:44:16 27° SSE 19:47:56 10° ESE visible
11 Apr - 21:20:15 10° WSW 21:24:11 33° S 21:28:07 10° ESE visible
11 Apr - 23:00:38 10° WSW 23:04:01 22° SSW 23:07:24 10° SSE visible
12 Apr - 18:03:54 10° S 18:06:25 15° SSE 18:08:56 10° ESE daylight
12 Apr - 19:42:18 10° SW 19:46:05 30° SSE 19:49:54 10° ESE visible
12 Apr - 21:22:09 10° WSW 21:26:01 31° S 21:29:55 10° SE visible
12 Apr - 23:02:47 10° WSW 23:05:47 18° SSW 23:08:46 10° SSE visible
13 Apr - 18:05:05 10° SSW 18:08:08 19° SSE 18:11:13 10° ESE daylight
13 Apr - 19:44:03 10° WSW 19:47:55 32° S 19:51:48 10° ESE visible
13 Apr - 21:24:05 10° WSW 21:27:50 29° SSW 21:31:38 10° SE visible
13 Apr - 23:05:09 10° WSW 23:07:30 14° SSW 23:09:50 10° S visible
